TimeCST,TemperatureF,Dew PointF,Humidity,Sea Level PressureIn,VisibilityMPH,Wind Direction,Wind SpeedMPH,Gust SpeedMPH,PrecipitationIn,Events,Conditions,WindDirDegrees,DateUTC
12:13 AM,24.8,23.0,93,29.39,10.0,NNE,6.9,-,N/A,,Overcast,20,2013-02-11 06:13:00
12:33 AM,24.8,23.0,93,29.39,10.0,NNE,6.9,-,N/A,,Overcast,20,2013-02-11 06:33:00
12:52 AM,24.8,23.0,93,29.39,10.0,North,5.8,-,N/A,,Overcast,10,2013-02-11 06:52:00
1:13 AM,24.8,23.0,93,29.38,7.0,North,8.1,-,0.01,,Overcast,10,2013-02-11 07:13:00
1:33 AM,24.8,23.0,93,29.39,5.0,North,6.9,-,0.01,,Overcast,10,2013-02-11 07:33:00
1:53 AM,24.8,23.0,93,29.39,4.0,North,5.8,-,0.01,,Overcast,360,2013-02-11 07:53:00
2:13 AM,24.8,21.2,86,29.39,4.0,North,5.8,-,N/A,Snow,Light Snow,360,2013-02-11 08:13:00
2:32 AM,24.8,21.2,86,29.39,5.0,North,6.9,-,N/A,,Overcast,360,2013-02-11 08:32:00
2:53 AM,23.0,21.2,93,29.39,10.0,North,8.1,-,N/A,,Overcast,360,2013-02-11 08:53:00
3:13 AM,23.0,21.2,93,29.39,10.0,North,6.9,19.6,N/A,,Overcast,360,2013-02-11 09:13:00
3:33 AM,23.0,21.2,93,29.40,10.0,North,8.1,-,N/A,,Overcast,350,2013-02-11 09:33:00
3:53 AM,21.2,19.4,93,29.41,10.0,North,6.9,-,N/A,,Overcast,350,2013-02-11 09:53:00
4:12 AM,21.2,19.4,93,29.42,10.0,North,5.8,-,N/A,Snow,Light Snow,360,2013-02-11 10:12:00
4:33 AM,21.2,19.4,93,29.42,10.0,North,5.8,16.1,N/A,Snow,Light Snow,350,2013-02-11 10:33:00
4:53 AM,21.2,19.4,93,29.43,5.0,NNW,8.1,-,N/A,Snow,Light Snow,340,2013-02-11 10:53:00
5:12 AM,21.2,19.4,93,29.44,7.0,NNW,8.1,17.3,N/A,Snow,Light Snow,340,2013-02-11 11:12:00
5:33 AM,21.2,19.4,93,29.45,10.0,NNW,5.8,-,N/A,Snow,Light Snow,340,2013-02-11 11:33:00
5:53 AM,21.2,19.4,93,29.46,7.0,NNW,9.2,-,N/A,Snow,Light Snow,340,2013-02-11 11:53:00
6:12 AM,21.2,19.4,93,29.47,7.0,NNW,8.1,-,N/A,Snow,Light Snow,330,2013-02-11 12:12:00
6:33 AM,21.2,19.4,93,29.48,2.5,NNW,8.1,-,N/A,Snow,Light Snow,330,2013-02-11 12:33:00
6:53 AM,21.2,19.4,93,29.49,1.8,NW,8.1,-,N/A,Snow,Light Snow,320,2013-02-11 12:53:00
7:12 AM,19.4,17.6,93,29.50,1.8,NNW,9.2,17.3,N/A,Snow,Light Snow,330,2013-02-11 13:12:00
7:33 AM,19.4,17.6,93,29.51,1.2,NNW,9.2,18.4,N/A,Snow,Light Snow,330,2013-02-11 13:33:00
7:53 AM,19.4,17.6,93,29.52,1.5,NNW,9.2,16.1,N/A,Snow,Light Snow,330,2013-02-11 13:53:00
8:13 AM,19.4,15.8,86,29.53,2.5,NNW,10.4,-,N/A,Snow,Light Snow,330,2013-02-11 14:13:00
8:33 AM,19.4,15.8,86,29.54,3.0,NNW,11.5,19.6,N/A,Snow,Light Snow,340,2013-02-11 14:33:00
8:53 AM,17.6,15.8,93,29.55,2.5,NNW,9.2,21.9,N/A,Snow,Light Snow,330,2013-02-11 14:53:00
9:13 AM,19.4,15.8,86,29.55,1.8,NNW,10.4,16.1,N/A,Snow,Light Snow,330,2013-02-11 15:13:00
9:32 AM,19.4,14.0,80,29.56,4.0,NNW,10.4,18.4,N/A,Snow,Light Snow,340,2013-02-11 15:32:00
9:53 AM,19.4,14.0,80,29.57,4.0,NNW,11.5,20.7,N/A,Snow,Light Snow,340,2013-02-11 15:53:00
10:13 AM,19.4,15.8,86,29.58,4.0,NNW,8.1,16.1,N/A,Snow,Light Snow,340,2013-02-11 16:13:00
10:32 AM,19.4,15.8,86,29.59,4.0,NW,9.2,19.6,N/A,Snow,Light Snow,320,2013-02-11 16:32:00
10:53 AM,19.4,14.0,80,29.60,5.0,NNW,8.1,23.0,N/A,Snow,Light Snow,330,2013-02-11 16:53:00
11:13 AM,19.4,14.0,80,29.61,2.5,NW,15.0,23.0,N/A,Snow,Light Snow,320,2013-02-11 17:13:00
11:32 AM,19.4,14.0,80,29.61,5.0,NW,11.5,19.6,N/A,Snow,Light Snow,320,2013-02-11 17:32:00
11:53 AM,19.4,14.0,80,29.62,10.0,NW,9.2,19.6,N/A,,Mostly Cloudy,320,2013-02-11 17:53:00
12:12 PM,19.4,14.0,80,29.62,5.0,NW,13.8,19.6,N/A,Snow,Light Snow,310,2013-02-11 18:12:00
12:33 PM,19.4,14.0,80,29.63,10.0,NW,15.0,23.0,N/A,Snow,Light Snow,320,2013-02-11 18:33:00
12:53 PM,19.4,14.0,80,29.64,4.0,NW,10.4,19.6,N/A,Snow,Light Snow,310,2013-02-11 18:53:00
1:13 PM,19.4,14.0,80,29.65,3.0,NW,13.8,20.7,N/A,Snow,Light Snow,320,2013-02-11 19:13:00
1:33 PM,19.4,14.0,80,29.66,4.0,NW,12.7,21.9,N/A,Snow,Light Snow,320,2013-02-11 19:33:00
1:53 PM,19.4,14.0,80,29.66,7.0,NW,17.3,21.9,N/A,Snow,Light Snow,320,2013-02-11 19:53:00
2:13 PM,19.4,14.0,80,29.67,10.0,WNW,10.4,17.3,N/A,Snow,Light Snow,300,2013-02-11 20:13:00
2:33 PM,19.4,14.0,80,29.68,10.0,NW,11.5,19.6,N/A,Snow,Light Snow,310,2013-02-11 20:33:00
2:53 PM,19.4,14.0,80,29.69,7.0,WNW,16.1,21.9,N/A,Snow,Light Snow,300,2013-02-11 20:53:00
3:13 PM,19.4,14.0,80,29.71,5.0,WNW,10.4,21.9,N/A,Snow,Light Snow,300,2013-02-11 21:13:00
3:33 PM,19.4,14.0,80,29.72,5.0,NW,9.2,19.6,N/A,Snow,Light Snow,320,2013-02-11 21:33:00
3:53 PM,19.4,15.8,86,29.73,5.0,NW,9.2,17.3,N/A,Snow,Light Snow,320,2013-02-11 21:53:00
4:53 PM,17.6,14.0,86,29.75,7.0,WNW,6.9,-,N/A,Snow,Light Snow,300,2013-02-11 22:53:00
5:13 PM,17.6,14.0,86,29.77,7.0,NW,5.8,-,N/A,Snow,Light Snow,310,2013-02-11 23:13:00
5:33 PM,17.6,14.0,86,29.77,5.0,WNW,8.1,-,N/A,Snow,Light Snow,300,2013-02-11 23:33:00
5:53 PM,17.6,14.0,86,29.78,10.0,WNW,8.1,-,N/A,Snow,Light Snow,300,2013-02-11 23:53:00
6:13 PM,17.6,14.0,86,29.79,10.0,WNW,6.9,-,N/A,Snow,Light Snow,290,2013-02-12 00:13:00
6:32 PM,17.6,14.0,86,29.79,10.0,NW,6.9,-,N/A,,Overcast,310,2013-02-12 00:32:00
6:53 PM,17.6,12.2,79,29.80,10.0,WNW,9.2,-,N/A,Snow,Light Snow,300,2013-02-12 00:53:00
7:12 PM,17.6,12.2,79,29.81,10.0,NW,9.2,18.4,N/A,Snow,Light Snow,320,2013-02-12 01:12:00
7:33 PM,17.6,12.2,79,29.82,10.0,NW,4.6,-,N/A,Snow,Light Snow,310,2013-02-12 01:33:00
7:53 PM,17.6,12.2,79,29.82,10.0,NW,8.1,-,N/A,Snow,Light Snow,310,2013-02-12 01:53:00
8:12 PM,17.6,14.0,86,29.83,10.0,WNW,3.5,-,N/A,Snow,Light Snow,300,2013-02-12 02:12:00
8:33 PM,17.6,12.2,79,29.83,7.0,WNW,3.5,-,N/A,Snow,Light Snow,290,2013-02-12 02:33:00
8:53 PM,17.6,14.0,86,29.84,7.0,West,3.5,-,N/A,Snow,Light Snow,280,2013-02-12 02:53:00
9:12 PM,17.6,14.0,86,29.84,7.0,West,4.6,-,N/A,Snow,Light Snow,270,2013-02-12 03:12:00
9:33 PM,17.6,14.0,86,29.84,10.0,WNW,3.5,-,N/A,Snow,Light Snow,290,2013-02-12 03:33:00
9:53 PM,15.8,12.2,86,29.84,10.0,West,3.5,-,N/A,Snow,Light Snow,270,2013-02-12 03:53:00
10:12 PM,15.8,12.2,86,29.84,10.0,WSW,3.5,-,N/A,,Overcast,250,2013-02-12 04:12:00
10:33 PM,15.8,12.2,86,29.84,10.0,WSW,3.5,-,N/A,Snow,Light Snow,250,2013-02-12 04:33:00
10:53 PM,15.8,12.2,86,29.84,3.0,West,3.5,-,N/A,Snow,Light Snow,260,2013-02-12 04:53:00
11:13 PM,15.8,14.0,93,29.84,10.0,West,4.6,-,N/A,Snow,Light Snow,260,2013-02-12 05:13:00
11:33 PM,15.8,14.0,93,29.84,7.0,WSW,3.5,-,N/A,Snow,Light Snow,250,2013-02-12 05:33:00
11:52 PM,15.8,12.2,86,29.84,5.0,Calm,Calm,-,N/A,Snow,Light Snow,0,2013-02-12 05:52:00